Change the Weather History Date:

Saturday, January 5, 2013

  Actual Average (KFNT) Record (KFNT)
Temperature  
Mean Temperature 21 °F 23 °F  
Max Temperature 33 °F 30 °F 59 °F (1997)
Min Temperature 9 °F 16 °F -7 °F (1924)
Degree Days  
Heating Degree Days 44 42  
Month to date heating degree days 209  
Since 1 July heating degree days 2854  
Cooling Degree Days 0 0  
Month to date cooling degree days 0  
Year to date cooling degree days 0  
Moisture  
Dew Point 21 °F    
Average Humidity 85    
Maximum Humidity 97    
Minimum Humidity 71    
Precipitation  
Precipitation 0.00 in 0.06 in 1.03 in (2014)
Month to date precipitation 0.29  
Year to date precipitation 0.29  
Snow  
Snow 0.00 in 0.40 in 14.50 in (2014)
Month to date snowfall 2.1  
Since 1 July snowfall 16.8  
Snow Depth -    
Sea Level Pressure  
Sea Level Pressure 30.12 in    
Wind  
Wind Speed 5 mph (SSW)    
Max Wind Speed 12 mph    
Max Gust Speed 16 mph    
Visibility 7 miles    
Events Snow    
T = Trace of Precipitation, MM = Missing Value Source: NWS Daily Summary

Daily Weather History Graph

Daily Weather History Graph

Search for Another Location

Airport or City:

Trip Planner

Search our weather history database for the weather conditions in past years. The results will help you decide how hot, cold, wet, or windy it might be!

Date:

Astronomy

Jan. 05, 2013 Rise Set
Actual Time 8:04 AM EST 5:12 PM EST
Civil Twilight 7:32 AM EST 5:45 PM EST
Nautical Twilight 6:56 AM EST 6:20 PM EST
Astronomical Twilight 6:22 AM EST 6:55 PM EST
Moon 1:04 AM EST (1/5) 12:06 PM EST (1/5)
Length of Visible Light 10h 12m
Length of Day
9h 08m
Last Quarter, 44% of the Moon is Illuminated
Jan 5
Last Quarter
Jan 11
New
Jan 18
First Quarter
Jan 26
Full
Feb 3
Last Quarter

Hourly Weather History & Observations

Time (EST) Temp. Windchill Dew Point Humidity Pressure Visibility Wind Dir Wind Speed Gust Speed Precip Events Conditions
12:12 AM 23.9 °F 19.5 °F 19.4 °F 83% 30.14 in 10.0 mi WSW 3.5 mph - N/A   Clear
12:33 AM 23.5 °F 19.1 °F 19.4 °F 84% 30.14 in 10.0 mi West 3.5 mph - N/A   Clear
12:53 AM 23.4 °F 18.9 °F 19.2 °F 84% 30.15 in 10.0 mi WSW 3.5 mph - N/A   Clear
1:13 AM 22.8 °F 18.2 °F 19.0 °F 85% 30.15 in 10.0 mi SW 3.5 mph - N/A   Clear
1:33 AM 21.9 °F 14.5 °F 18.7 °F 87% 30.16 in 10.0 mi SW 5.8 mph - N/A   Clear
1:52 AM 22.1 °F 17.4 °F 18.7 °F 87% 30.16 in 10.0 mi WSW 3.5 mph - N/A   Clear
2:13 AM 22.1 °F 15.9 °F 19.2 °F 89% 30.17 in 10.0 mi WSW 4.6 mph - N/A   Clear
2:33 AM 21.7 °F 15.5 °F 19.0 °F 89% 30.18 in 7.0 mi SW 4.6 mph - N/A   Clear
2:52 AM 21.9 °F 17.2 °F 19.4 °F 90% 30.18 in 7.0 mi SW 3.5 mph - N/A   Clear
3:13 AM 21.7 °F 17.0 °F 19.4 °F 91% 30.18 in 7.0 mi WSW 3.5 mph - N/A   Clear
3:33 AM 21.4 °F 15.1 °F 19.4 °F 92% 30.19 in 7.0 mi WSW 4.6 mph - N/A   Clear
3:52 AM 21.7 °F 15.5 °F 19.6 °F 91% 30.20 in 7.0 mi WSW 4.6 mph - N/A   Clear
4:13 AM 21.9 °F 15.7 °F 19.9 °F 92% 30.20 in 7.0 mi WSW 4.6 mph - N/A   Clear
4:33 AM 22.1 °F - 19.9 °F 91% 30.19 in 7.0 mi Calm Calm - N/A   Clear
4:52 AM 21.6 °F 16.8 °F 19.8 °F 93% 30.19 in 7.0 mi WSW 3.5 mph - N/A   Clear
5:13 AM 21.2 °F 14.9 °F 19.4 °F 93% 30.20 in 7.0 mi WSW 4.6 mph - N/A   Clear
5:33 AM 21.2 °F 14.9 °F 19.4 °F 93% 30.20 in 5.0 mi SW 4.6 mph - N/A   Clear
5:52 AM 19.2 °F - 17.4 °F 93% 30.20 in 5.0 mi Calm Calm - N/A   Clear
6:13 AM 16.2 °F - 15.4 °F 97% 30.22 in 3.0 mi Calm Calm - N/A   Clear
6:33 AM 13.8 °F - 12.4 °F 94% 30.22 in 3.0 mi Calm Calm - N/A   Clear
6:52 AM 12.4 °F - 11.1 °F 95% 30.22 in 5.0 mi Calm Calm - N/A   Clear
7:13 AM 10.2 °F - 8.6 °F 93% 30.21 in 5.0 mi Calm Calm - N/A   Clear
7:33 AM 9.0 °F - 6.8 °F 91% 30.20 in 5.0 mi Calm Calm - N/A   Clear
8:13 AM 10.2 °F - 8.6 °F 93% 30.22 in 3.0 mi Calm Calm - N/A   Clear
8:33 AM 10.2 °F - 7.9 °F 90% 30.22 in 4.0 mi Calm Calm - N/A   Clear
8:52 AM 10.4 °F - 8.6 °F 92% 30.23 in 4.0 mi Calm Calm - N/A   Clear
9:13 AM 10.9 °F - 8.8 °F 91% 30.22 in 4.0 mi Calm Calm - N/A   Clear
9:33 AM 13.1 °F - 11.1 °F 92% 30.23 in 5.0 mi Calm Calm - N/A   Clear
9:52 AM 16.2 °F - 14.7 °F 94% 30.23 in 5.0 mi Calm Calm - N/A   Clear
10:13 AM 19.6 °F - 18.3 °F 95% 30.23 in 4.0 mi Calm Calm - N/A   Clear
10:52 AM 26.6 °F 20.0 °F 23.5 °F 88% 30.23 in 5.0 mi SSW 5.8 mph - N/A   Clear
11:13 AM 28.8 °F 20.9 °F 24.3 °F 83% 30.23 in 7.0 mi SW 8.1 mph - N/A   Clear
11:52 AM 29.7 °F 24.7 °F 24.6 °F 81% 30.20 in 7.0 mi SSW 4.6 mph - N/A   Scattered Clouds
12:13 PM 30.6 °F 23.8 °F 25.7 °F 82% 30.18 in 7.0 mi South 6.9 mph - N/A   Overcast
12:33 PM 30.7 °F 24.1 °F 25.5 °F 81% 30.16 in 7.0 mi South 6.9 mph - N/A   Overcast
12:52 PM 31.8 °F 22.8 °F 25.7 °F 78% 30.15 in 7.0 mi South 11.5 mph - N/A   Mostly Cloudy
1:13 PM 31.6 °F 23.1 °F 25.9 °F 79% 30.13 in 10.0 mi South 10.4 mph - N/A   Mostly Cloudy
1:33 PM 32.0 °F 23.0 °F 25.5 °F 77% 30.11 in 10.0 mi South 11.5 mph - N/A   Scattered Clouds
1:53 PM 32.4 °F 26.0 °F 25.7 °F 76% 30.10 in 10.0 mi SSE 6.9 mph - N/A   Clear
2:13 PM 32.9 °F 25.9 °F 26.1 °F 76% 30.10 in 7.0 mi South 8.1 mph - N/A   Clear
2:33 PM 32.5 °F 24.2 °F 25.2 °F 74% 30.09 in 10.0 mi South 10.4 mph - N/A   Clear
2:53 PM 33.1 °F 26.1 °F 25.3 °F 73% 30.08 in 7.0 mi South 8.1 mph - N/A   Clear
3:13 PM 32.9 °F 25.3 °F 25.5 °F 74% 30.08 in 7.0 mi South 9.2 mph 16.1 mph N/A   Clear
3:33 PM 32.4 °F 24.6 °F 25.3 °F 75% 30.08 in 10.0 mi South 9.2 mph - N/A   Clear
3:53 PM 32.2 °F 23.8 °F 25.3 °F 76% 30.07 in 10.0 mi South 10.4 mph - N/A   Clear
4:13 PM 32.2 °F 23.8 °F 25.0 °F 75% 30.07 in 10.0 mi South 10.4 mph - N/A   Clear
4:32 PM 32.0 °F 24.2 °F 23.9 °F 72% 30.05 in 10.0 mi South 9.2 mph - N/A   Clear
4:53 PM 31.5 °F 22.9 °F 23.2 °F 71% 30.05 in 10.0 mi SSW 10.4 mph - N/A   Clear
5:13 PM 31.1 °F 24.5 °F 23.2 °F 72% 30.05 in 10.0 mi South 6.9 mph - N/A   Clear
5:53 PM 30.6 °F 22.4 °F 23.0 °F 74% 30.05 in 10.0 mi South 9.2 mph - N/A   Scattered Clouds
6:13 PM 30.2 °F 23.4 °F 23.4 °F 76% 30.04 in 10.0 mi South 6.9 mph - N/A   Mostly Cloudy
6:32 PM 30.2 °F 21.9 °F 23.4 °F 76% 30.04 in 10.0 mi South 9.2 mph - N/A   Overcast
6:53 PM 30.2 °F 24.3 °F 23.4 °F 76% 30.03 in 10.0 mi South 5.8 mph - N/A   Overcast
7:13 PM 30.2 °F 22.6 °F 23.5 °F 76% 30.04 in 10.0 mi South 8.1 mph - N/A   Overcast
7:32 PM 30.2 °F 21.9 °F 23.7 °F 77% 30.03 in 10.0 mi South 9.2 mph - N/A   Overcast
7:53 PM 30.7 °F 24.9 °F 24.1 °F 76% 30.03 in 10.0 mi South 5.8 mph - N/A   Overcast
8:13 PM 30.9 °F 22.8 °F 24.4 °F 77% 30.02 in 10.0 mi SSW 9.2 mph - N/A   Overcast
8:53 PM 30.7 °F 22.6 °F 24.8 °F 79% 30.02 in 10.0 mi SSW 9.2 mph - N/A   Overcast
9:13 PM 30.6 °F 23.1 °F 25.7 °F 82% 30.02 in 4.0 mi SW 8.1 mph - N/A Snow Light Snow
9:32 PM 30.7 °F 22.6 °F 26.4 °F 84% 30.01 in 4.0 mi SSW 9.2 mph - N/A Snow Light Snow
9:53 PM 30.2 °F 22.6 °F 27.3 °F 89% 30.00 in 2.5 mi SSW 8.1 mph - N/A Snow Light Snow
10:13 PM 30.2 °F 21.9 °F 27.9 °F 91% 30.00 in 2.5 mi SSW 9.2 mph - N/A Snow Light Snow
10:32 PM 30.2 °F 23.4 °F 28.8 °F 94% 30.00 in 1.2 mi SSW 6.9 mph - N/A Snow Light Snow
10:53 PM 30.2 °F 23.4 °F 28.9 °F 95% 29.99 in 3.0 mi South 6.9 mph - N/A Snow Light Snow
11:13 PM 30.7 °F 23.3 °F 29.3 °F 94% 29.98 in 1.8 mi SSW 8.1 mph - N/A Snow Light Snow
11:32 PM 31.1 °F 24.5 °F 29.8 °F 95% 29.98 in 2.0 mi SSW 6.9 mph - N/A Snow Light Snow
11:53 PM 31.8 °F 25.4 °F 30.2 °F 94% 29.98 in 3.0 mi SSW 6.9 mph - N/A Snow Light Snow